DKH3119 ZSJN-ZSHC

Flight info

Callsign DKH3119
Flight time 1h 17m
Altitude 26600
Route ABTUB A593 DPX A470 OF W95 SAPIN A470 IGRAT
Aircraft A20N/M-SDE2E3FGHIRWXY/LB1

Departure

Time 2026-04-16 10:17
Airport Jinan Yaoqiang International Airport (ZSJN)

Arrival

Time 2026-04-16 11:35
Airport Hangzhou Xiaoshan International Airport (ZSHC)
Time Latitude Longitude Altitude Speed Heading
2026-04-16 09:43 36.84823 117.20975 84 ft 0 kts 205°
2026-04-16 10:03 36.84824 117.20976 84 ft 1 kts 205°
2026-04-16 10:03 36.84838 117.20983 84 ft 2 kts 204°
2026-04-16 10:04 36.84851 117.20991 84 ft 2 kts 205°
2026-04-16 10:04 36.84860 117.20996 84 ft 2 kts 205°
2026-04-16 10:04 36.84875 117.21001 84 ft 2 kts 178°
2026-04-16 10:04 36.84890 117.20998 84 ft 2 kts 156°
2026-04-16 10:05 36.84899 117.20991 84 ft 0 kts 140°
2026-04-16 10:05 36.84904 117.20985 84 ft 0 kts 137°
2026-04-16 10:07 36.84898 117.20992 84 ft 2 kts 134°
2026-04-16 10:07 36.84884 117.21019 84 ft 5 kts 116°
2026-04-16 10:08 36.84864 117.21072 84 ft 6 kts 114°
2026-04-16 10:08 36.84843 117.21129 84 ft 6 kts 114°
2026-04-16 10:08 36.84825 117.21178 84 ft 7 kts 114°
2026-04-16 10:08 36.84804 117.21232 84 ft 6 kts 115°
2026-04-16 10:09 36.84786 117.21291 84 ft 6 kts 98°
2026-04-16 10:09 36.84778 117.21346 84 ft 7 kts 123°
2026-04-16 10:09 36.84728 117.21368 84 ft 8 kts 179°
2026-04-16 10:09 36.84661 117.21368 84 ft 10 kts 180°
2026-04-16 10:10 36.84584 117.21368 84 ft 11 kts 180°
2026-04-16 10:10 36.84506 117.21368 84 ft 11 kts 180°
2026-04-16 10:10 36.84426 117.21368 84 ft 11 kts 180°
2026-04-16 10:10 36.84339 117.21368 84 ft 12 kts 180°
2026-04-16 10:11 36.84235 117.21368 84 ft 5 kts 180°
2026-04-16 10:11 36.84193 117.21368 84 ft 6 kts 180°
2026-04-16 10:11 36.84182 117.21368 84 ft 0 kts 179°
2026-04-16 10:12 36.84181 117.21368 84 ft 0 kts 179°
2026-04-16 10:13 36.84166 117.21368 84 ft 3 kts 179°
2026-04-16 10:13 36.84135 117.21375 84 ft 5 kts 151°
2026-04-16 10:13 36.84117 117.21423 84 ft 5 kts 93°
2026-04-16 10:13 36.84116 117.21465 84 ft 5 kts 90°
2026-04-16 10:14 36.84116 117.21516 84 ft 6 kts 89°
2026-04-16 10:14 36.84129 117.21575 82 ft 5 kts 52°
2026-04-16 10:14 36.84163 117.21592 82 ft 3 kts
2026-04-16 10:16 36.84166 117.21592 82 ft 0 kts
2026-04-16 10:16 36.84220 117.21592 82 ft 33 kts 360°
2026-04-16 10:16 36.84742 117.21592 84 ft 113 kts 360°
2026-04-16 10:17 36.85746 117.21594 195 ft 163 kts 360°
2026-04-16 10:17 36.86904 117.21591 853 ft 169 kts 360°
2026-04-16 10:17 36.88081 117.21581 1600 ft 173 kts
2026-04-16 10:17 36.89274 117.21577 2336 ft 174 kts
2026-04-16 10:18 36.90483 117.21579 3037 ft 175 kts
2026-04-16 10:18 36.91696 117.21581 3641 ft 183 kts
2026-04-16 10:18 36.93036 117.21587 4148 ft 199 kts 360°
2026-04-16 10:18 36.94479 117.21588 4663 ft 216 kts 359°
2026-04-16 10:19 36.96056 117.21588 5100 ft 240 kts 359°
2026-04-16 10:19 36.97778 117.21666 5695 ft 257 kts 10°
2026-04-16 10:19 36.99350 117.22676 6590 ft 261 kts 46°
2026-04-16 10:19 37.00237 117.24609 7561 ft 261 kts 78°
2026-04-16 10:20 37.00190 117.26850 8347 ft 265 kts 110°
2026-04-16 10:20 36.99189 117.28743 9111 ft 266 kts 144°
2026-04-16 10:20 36.97572 117.29779 9839 ft 267 kts 165°
2026-04-16 10:20 36.95778 117.30531 10534 ft 277 kts 165°
2026-04-16 10:21 36.93935 117.31313 11346 ft 281 kts 164°
2026-04-16 10:21 36.92107 117.32124 12170 ft 284 kts 165°
2026-04-16 10:21 36.90211 117.32984 12755 ft 297 kts 163°
2026-04-16 10:21 36.88209 117.33897 13193 ft 315 kts 163°
2026-04-16 10:22 36.86103 117.34869 13591 ft 333 kts 163°
2026-04-16 10:22 36.83882 117.35872 13984 ft 350 kts 166°
2026-04-16 10:22 36.81481 117.36594 14465 ft 359 kts 175°
2026-04-16 10:22 36.79006 117.36862 15188 ft 360 kts 182°
2026-04-16 10:23 36.76478 117.36887 15975 ft 362 kts 184°
2026-04-16 10:23 36.73973 117.36871 16715 ft 364 kts 185°
2026-04-16 10:23 36.71430 117.36851 17421 ft 367 kts 185°
2026-04-16 10:23 36.68865 117.36835 18078 ft 372 kts 185°
2026-04-16 10:24 36.66259 117.36822 18735 ft 375 kts 184°
2026-04-16 10:24 36.63671 117.36816 19407 ft 378 kts 185°
2026-04-16 10:24 36.61021 117.36809 20093 ft 380 kts 185°
2026-04-16 10:24 36.58382 117.36806 20726 ft 383 kts 185°
2026-04-16 10:25 36.55687 117.36798 21286 ft 388 kts 185°
2026-04-16 10:25 36.52998 117.36794 21884 ft 391 kts 185°
2026-04-16 10:25 36.50273 117.36791 22525 ft 393 kts 185°
2026-04-16 10:25 36.47539 117.36790 23147 ft 395 kts 185°
2026-04-16 10:26 36.44789 117.36786 23737 ft 397 kts 185°
2026-04-16 10:26 36.42022 117.36786 24320 ft 398 kts 186°
2026-04-16 10:26 36.39244 117.36786 24941 ft 399 kts 186°
2026-04-16 10:26 36.36454 117.36786 25454 ft 402 kts 186°
2026-04-16 10:27 36.33678 117.36784 25722 ft 403 kts 186°
2026-04-16 10:27 36.30829 117.36781 25974 ft 405 kts 187°
2026-04-16 10:27 36.28032 117.36781 26227 ft 405 kts 187°
2026-04-16 10:27 36.25186 117.36777 26480 ft 406 kts 187°
2026-04-16 10:28 36.22369 117.36774 26559 ft 406 kts 187°
2026-04-16 10:28 36.19528 117.36777 26568 ft 406 kts 187°
2026-04-16 10:28 36.16711 117.36775 26561 ft 406 kts 187°
2026-04-16 10:28 36.13855 117.36775 26555 ft 407 kts 187°
2026-04-16 10:29 36.11015 117.36775 26552 ft 407 kts 187°
2026-04-16 10:29 36.08176 117.36773 26556 ft 406 kts 187°
2026-04-16 10:29 36.05353 117.36771 26560 ft 406 kts 187°
2026-04-16 10:29 36.02510 117.36879 26564 ft 409 kts 183°
2026-04-16 10:30 35.99634 117.37297 26564 ft 414 kts 178°
2026-04-16 10:30 35.96808 117.38023 26566 ft 419 kts 173°
2026-04-16 10:30 35.93997 117.39014 26560 ft 422 kts 171°
2026-04-16 10:30 35.91194 117.40060 26566 ft 423 kts 171°
2026-04-16 10:31 35.88324 117.41140 26562 ft 423 kts 171°
2026-04-16 10:31 35.85458 117.42215 26563 ft 423 kts 171°
2026-04-16 10:31 35.82649 117.43266 26564 ft 424 kts 171°
2026-04-16 10:31 35.79837 117.44316 26567 ft 423 kts 171°
2026-04-16 10:32 35.76980 117.45383 26563 ft 424 kts 171°
2026-04-16 10:32 35.74159 117.46433 26563 ft 423 kts 171°
2026-04-16 10:32 35.71350 117.47480 26564 ft 423 kts 171°
2026-04-16 10:32 35.68532 117.48530 26561 ft 423 kts 171°
2026-04-16 10:33 35.65734 117.49571 26563 ft 423 kts 171°
2026-04-16 10:33 35.62907 117.50621 26561 ft 422 kts 171°
2026-04-16 10:33 35.60087 117.51668 26564 ft 424 kts 171°
2026-04-16 10:33 35.57254 117.52718 26561 ft 424 kts 170°
2026-04-16 10:34 35.54458 117.53754 26573 ft 424 kts 171°
2026-04-16 10:34 35.51605 117.54813 26565 ft 425 kts 171°
2026-04-16 10:34 35.48799 117.55851 26563 ft 425 kts 170°
2026-04-16 10:34 35.45967 117.56899 26574 ft 425 kts 170°
2026-04-16 10:35 35.43124 117.57952 26563 ft 426 kts 171°
2026-04-16 10:35 35.40281 117.59000 26562 ft 425 kts 170°
2026-04-16 10:35 35.37427 117.60055 26563 ft 424 kts 170°
2026-04-16 10:35 35.34605 117.61095 26567 ft 425 kts 170°
2026-04-16 10:36 35.31772 117.62140 26566 ft 425 kts 170°
2026-04-16 10:36 35.28945 117.63181 26571 ft 425 kts 170°
2026-04-16 10:36 35.26085 117.64236 26572 ft 426 kts 170°
2026-04-16 10:36 35.23268 117.65273 26571 ft 426 kts 171°
2026-04-16 10:37 35.20395 117.66343 26564 ft 425 kts 170°
2026-04-16 10:37 35.17583 117.67388 26566 ft 424 kts 171°
2026-04-16 10:37 35.14733 117.68441 26564 ft 425 kts 170°
2026-04-16 10:37 35.11904 117.69480 26566 ft 426 kts 171°
2026-04-16 10:38 35.09088 117.70512 26563 ft 426 kts 170°
2026-04-16 10:38 35.06231 117.71558 26566 ft 426 kts 170°
2026-04-16 10:38 35.03412 117.72594 26569 ft 426 kts 170°
2026-04-16 10:38 35.00572 117.73636 26569 ft 426 kts 170°
2026-04-16 10:39 34.97730 117.74676 26566 ft 426 kts 170°
2026-04-16 10:39 34.94891 117.75714 26568 ft 427 kts 170°
2026-04-16 10:39 34.92053 117.76749 26566 ft 427 kts 170°
2026-04-16 10:39 34.89190 117.77794 26574 ft 427 kts 170°
2026-04-16 10:40 34.86326 117.78838 26572 ft 427 kts 170°
2026-04-16 10:40 34.83449 117.79886 26569 ft 428 kts 170°
2026-04-16 10:40 34.80618 117.80923 26572 ft 427 kts 170°
2026-04-16 10:40 34.77770 117.81953 26569 ft 427 kts 170°
2026-04-16 10:41 34.74932 117.82975 26568 ft 427 kts 170°
2026-04-16 10:41 34.72084 117.84000 26568 ft 428 kts 170°
2026-04-16 10:41 34.69201 117.85035 26569 ft 428 kts 170°
2026-04-16 10:41 34.66361 117.86056 26566 ft 428 kts 170°
2026-04-16 10:42 34.63508 117.87080 26569 ft 428 kts 170°
2026-04-16 10:42 34.60669 117.88098 26567 ft 428 kts 170°
2026-04-16 10:42 34.57806 117.89124 26570 ft 429 kts 170°
2026-04-16 10:42 34.54945 117.90148 26566 ft 429 kts 170°
2026-04-16 10:43 34.52089 117.91170 26566 ft 429 kts 170°
2026-04-16 10:43 34.49202 117.92203 26568 ft 429 kts 170°
2026-04-16 10:43 34.46342 117.93225 26564 ft 429 kts 170°
2026-04-16 10:43 34.43464 117.94252 26568 ft 430 kts 169°
2026-04-16 10:44 34.40610 117.95271 26567 ft 430 kts 169°
2026-04-16 10:44 34.37734 117.96298 26568 ft 430 kts 169°
2026-04-16 10:44 34.34871 117.97319 26567 ft 429 kts 169°
2026-04-16 10:44 34.32004 117.98341 26565 ft 429 kts 170°
2026-04-16 10:45 34.29146 117.99359 26564 ft 430 kts 169°
2026-04-16 10:45 34.26259 118.00392 26565 ft 431 kts 169°
2026-04-16 10:45 34.23371 118.01443 26566 ft 431 kts 169°
2026-04-16 10:45 34.20482 118.02499 26563 ft 432 kts 169°
2026-04-16 10:46 34.17627 118.03543 26563 ft 432 kts 169°
2026-04-16 10:46 34.14755 118.04590 26561 ft 432 kts 169°
2026-04-16 10:46 34.11864 118.05641 26562 ft 432 kts 169°
2026-04-16 10:46 34.08947 118.06700 26560 ft 433 kts 169°
2026-04-16 10:47 34.06056 118.07749 26561 ft 433 kts 169°
2026-04-16 10:47 34.03180 118.08791 26560 ft 433 kts 169°
2026-04-16 10:47 34.00299 118.09837 26562 ft 433 kts 169°
2026-04-16 10:47 33.97369 118.10905 26558 ft 432 kts 169°
2026-04-16 10:48 33.94506 118.11948 26553 ft 432 kts 169°
2026-04-16 10:48 33.91647 118.12991 26555 ft 432 kts 169°
2026-04-16 10:48 33.88739 118.14048 26557 ft 431 kts 169°
2026-04-16 10:48 33.85826 118.15102 26552 ft 432 kts 169°
2026-04-16 10:49 33.82946 118.16145 26555 ft 432 kts 169°
2026-04-16 10:49 33.80075 118.17186 26552 ft 432 kts 169°
2026-04-16 10:49 33.77159 118.18246 26551 ft 433 kts 169°
2026-04-16 10:49 33.74314 118.19282 26557 ft 433 kts 169°
2026-04-16 10:50 33.71426 118.20335 26552 ft 432 kts 169°
2026-04-16 10:50 33.68524 118.21392 26553 ft 432 kts 169°
2026-04-16 10:50 33.65647 118.22438 26550 ft 432 kts 169°
2026-04-16 10:50 33.62801 118.23473 26549 ft 432 kts 169°
2026-04-16 10:51 33.59924 118.24518 26549 ft 432 kts 169°
2026-04-16 10:51 33.57044 118.25562 26544 ft 432 kts 169°
2026-04-16 10:51 33.54169 118.26604 26549 ft 432 kts 169°
2026-04-16 10:51 33.51258 118.27657 26545 ft 432 kts 169°
2026-04-16 10:52 33.48387 118.28696 26543 ft 431 kts 169°
2026-04-16 10:52 33.45521 118.29734 26548 ft 431 kts 169°
2026-04-16 10:52 33.42666 118.30766 26547 ft 431 kts 169°
2026-04-16 10:52 33.39795 118.31802 26544 ft 431 kts 169°
2026-04-16 10:53 33.36895 118.32849 26545 ft 431 kts 169°
2026-04-16 10:53 33.34032 118.33884 26548 ft 430 kts 169°
2026-04-16 10:53 33.31196 118.34906 26542 ft 431 kts 170°
2026-04-16 10:53 33.28293 118.35951 26546 ft 431 kts 170°
2026-04-16 10:54 33.25440 118.36978 26547 ft 431 kts 169°
2026-04-16 10:54 33.22583 118.38007 26541 ft 431 kts 170°
2026-04-16 10:54 33.19687 118.39050 26545 ft 431 kts 170°
2026-04-16 10:54 33.16822 118.40080 26544 ft 430 kts 170°
2026-04-16 10:55 33.13965 118.41110 26544 ft 430 kts 170°
2026-04-16 10:55 33.11113 118.42134 26546 ft 431 kts 170°
2026-04-16 10:55 33.08222 118.43173 26545 ft 431 kts 170°
2026-04-16 10:55 33.05335 118.44211 26543 ft 431 kts 170°
2026-04-16 10:56 33.02465 118.45241 26543 ft 431 kts 170°
2026-04-16 10:56 32.99569 118.46281 26540 ft 431 kts 170°
2026-04-16 10:56 32.96683 118.47317 26539 ft 431 kts 170°
2026-04-16 10:56 32.93845 118.48334 26539 ft 431 kts 170°
2026-04-16 10:57 32.90954 118.49370 26540 ft 431 kts 170°
2026-04-16 10:57 32.88071 118.50401 26537 ft 431 kts 170°
2026-04-16 10:57 32.85187 118.51428 26537 ft 431 kts 170°
2026-04-16 10:57 32.82305 118.52457 26533 ft 431 kts 170°
2026-04-16 10:58 32.79422 118.53487 26534 ft 432 kts 170°
2026-04-16 10:58 32.76536 118.54517 26531 ft 430 kts 170°
2026-04-16 10:58 32.73689 118.55534 26532 ft 431 kts 170°
2026-04-16 10:58 32.70799 118.56566 26530 ft 431 kts 170°
2026-04-16 10:59 32.67909 118.57597 26531 ft 430 kts 170°
2026-04-16 10:59 32.65068 118.58589 26528 ft 429 kts 171°
2026-04-16 10:59 32.62179 118.59570 26528 ft 429 kts 171°
2026-04-16 10:59 32.59291 118.60543 26529 ft 429 kts 171°
2026-04-16 11:00 32.56453 118.61502 26531 ft 430 kts 171°
2026-04-16 11:00 32.53576 118.62476 26536 ft 429 kts 171°
2026-04-16 11:00 32.50688 118.63455 26527 ft 429 kts 171°
2026-04-16 11:00 32.47818 118.64428 26536 ft 430 kts 171°
2026-04-16 11:01 32.44915 118.65413 26528 ft 429 kts 172°
2026-04-16 11:01 32.42062 118.66393 26527 ft 428 kts 172°
2026-04-16 11:01 32.39177 118.67382 26531 ft 428 kts 172°
2026-04-16 11:01 32.36290 118.68366 26530 ft 428 kts 172°
2026-04-16 11:02 32.33463 118.69324 26530 ft 428 kts 172°
2026-04-16 11:02 32.30598 118.70290 26536 ft 429 kts 172°
2026-04-16 11:02 32.27713 118.71262 26525 ft 429 kts 172°
2026-04-16 11:02 32.24832 118.72233 26521 ft 428 kts 172°
2026-04-16 11:03 32.21973 118.73193 26523 ft 428 kts 172°
2026-04-16 11:03 32.19072 118.74164 26528 ft 429 kts 172°
2026-04-16 11:03 32.13359 118.76076 26531 ft 428 kts 172°
2026-04-16 11:04 32.10486 118.77034 26530 ft 428 kts 173°
2026-04-16 11:04 32.07619 118.77992 26526 ft 427 kts 173°
2026-04-16 11:04 32.04732 118.78954 26526 ft 426 kts 173°
2026-04-16 11:04 32.01883 118.79905 26523 ft 427 kts 173°
2026-04-16 11:05 31.99003 118.80863 26527 ft 427 kts 173°
2026-04-16 11:05 31.96103 118.81805 26521 ft 427 kts 173°
2026-04-16 11:05 31.93248 118.82712 26527 ft 426 kts 173°
2026-04-16 11:05 31.90370 118.83626 26529 ft 426 kts 173°
2026-04-16 11:06 31.87496 118.84539 26531 ft 426 kts 173°
2026-04-16 11:06 31.84636 118.85448 26528 ft 427 kts 173°
2026-04-16 11:06 31.81779 118.86410 26533 ft 429 kts 172°
2026-04-16 11:06 31.78898 118.87468 26522 ft 434 kts 168°
2026-04-16 11:07 31.76088 118.88957 26521 ft 443 kts 160°
2026-04-16 11:07 31.73459 118.90954 26524 ft 453 kts 150°
2026-04-16 11:07 31.71076 118.93356 26525 ft 456 kts 146°
2026-04-16 11:07 31.68722 118.95795 26523 ft 451 kts 148°
2026-04-16 11:08 31.66256 118.98088 26528 ft 449 kts 151°
2026-04-16 11:08 31.63753 119.00322 26521 ft 451 kts 151°
2026-04-16 11:08 31.61248 119.02532 26518 ft 450 kts 152°
2026-04-16 11:08 31.58737 119.04730 26516 ft 450 kts 152°
2026-04-16 11:09 31.56239 119.06911 26517 ft 450 kts 152°
2026-04-16 11:09 31.53743 119.09096 26448 ft 447 kts 151°
2026-04-16 11:09 31.51260 119.11275 25989 ft 443 kts 151°
2026-04-16 11:09 31.48796 119.13433 25258 ft 443 kts 151°
2026-04-16 11:10 31.46347 119.15577 24762 ft 437 kts 151°
2026-04-16 11:10 31.43921 119.17699 24144 ft 435 kts 150°
2026-04-16 11:10 31.41506 119.19806 23474 ft 435 kts 151°
2026-04-16 11:10 31.39087 119.21915 22858 ft 433 kts 150°
2026-04-16 11:11 31.36666 119.24020 22281 ft 431 kts 150°
2026-04-16 11:11 31.34282 119.26097 21760 ft 427 kts 149°
2026-04-16 11:11 31.31899 119.28174 21225 ft 424 kts 149°
2026-04-16 11:11 31.29544 119.30223 20713 ft 420 kts 148°
2026-04-16 11:12 31.27214 119.32251 20204 ft 416 kts 148°
2026-04-16 11:12 31.24918 119.34249 19692 ft 412 kts 148°
2026-04-16 11:12 31.22621 119.36244 19159 ft 409 kts 148°
2026-04-16 11:12 31.20347 119.38219 18663 ft 405 kts 147°
2026-04-16 11:13 31.18104 119.40171 18162 ft 401 kts 147°
2026-04-16 11:13 31.15863 119.42129 17640 ft 398 kts 146°
2026-04-16 11:13 31.13688 119.44033 17150 ft 394 kts 146°
2026-04-16 11:13 31.11478 119.45965 16630 ft 391 kts 146°
2026-04-16 11:14 31.09318 119.47852 16120 ft 388 kts 146°
2026-04-16 11:14 31.07160 119.49738 15599 ft 384 kts 146°
2026-04-16 11:14 31.05020 119.51605 15102 ft 381 kts 146°
2026-04-16 11:14 31.02924 119.53435 14597 ft 379 kts 145°
2026-04-16 11:15 31.00817 119.55270 14095 ft 375 kts 146°
2026-04-16 11:15 30.98722 119.57094 13595 ft 372 kts 145°
2026-04-16 11:15 30.96684 119.58865 13138 ft 367 kts 145°
2026-04-16 11:15 30.94613 119.60667 12900 ft 368 kts 145°
2026-04-16 11:16 30.92583 119.62435 12651 ft 366 kts 145°
2026-04-16 11:16 30.90532 119.64220 12410 ft 366 kts 145°
2026-04-16 11:16 30.88477 119.66002 12165 ft 364 kts 146°
2026-04-16 11:16 30.86443 119.67768 11922 ft 364 kts 146°
2026-04-16 11:17 30.84425 119.69523 11741 ft 362 kts 146°
2026-04-16 11:17 30.82403 119.71277 11715 ft 357 kts 146°
2026-04-16 11:17 30.80445 119.72980 11694 ft 338 kts 146°
2026-04-16 11:17 30.78590 119.74590 11714 ft 321 kts 146°
2026-04-16 11:18 30.76831 119.76113 11702 ft 310 kts 146°
2026-04-16 11:18 30.75126 119.77586 11405 ft 307 kts 146°
2026-04-16 11:18 30.73386 119.79085 10929 ft 308 kts 146°
2026-04-16 11:18 30.71673 119.80563 10521 ft 307 kts 146°
2026-04-16 11:19 30.69973 119.82084 10150 ft 306 kts 144°
2026-04-16 11:19 30.68322 119.83598 9770 ft 304 kts 144°
2026-04-16 11:19 30.66657 119.85127 9394 ft 303 kts 144°
2026-04-16 11:19 30.65000 119.86585 9010 ft 300 kts 147°
2026-04-16 11:20 30.63267 119.87927 8644 ft 297 kts 151°
2026-04-16 11:20 30.61484 119.89129 8279 ft 294 kts 154°
2026-04-16 11:20 30.59692 119.90264 7903 ft 292 kts 154°
2026-04-16 11:20 30.57914 119.91388 7655 ft 291 kts 154°
2026-04-16 11:21 30.56130 119.92514 7410 ft 290 kts 154°
2026-04-16 11:21 30.54371 119.93628 7162 ft 289 kts 154°
2026-04-16 11:21 30.52535 119.94572 6948 ft 284 kts 166°
2026-04-16 11:21 30.50610 119.95145 6918 ft 284 kts 170°
2026-04-16 11:22 30.48684 119.95654 6906 ft 284 kts 170°
2026-04-16 11:22 30.46754 119.96182 6907 ft 284 kts 169°
2026-04-16 11:22 30.44830 119.96729 6914 ft 284 kts 169°
2026-04-16 11:22 30.42929 119.97288 6909 ft 284 kts 169°
2026-04-16 11:23 30.41007 119.97864 6900 ft 284 kts 169°
2026-04-16 11:23 30.39078 119.98446 6891 ft 283 kts 168°
2026-04-16 11:23 30.37185 119.99022 6891 ft 283 kts 168°
2026-04-16 11:23 30.35253 119.99612 6896 ft 284 kts 168°
2026-04-16 11:24 30.33355 120.00191 6899 ft 283 kts 168°
2026-04-16 11:24 30.31431 120.00777 6901 ft 283 kts 168°
2026-04-16 11:24 30.29560 120.01350 6896 ft 273 kts 168°
2026-04-16 11:24 30.27798 120.02014 6887 ft 259 kts 158°
2026-04-16 11:25 30.26213 120.02932 6879 ft 245 kts 154°
2026-04-16 11:25 30.24737 120.03870 6885 ft 243 kts 154°
2026-04-16 11:25 30.23272 120.04812 6885 ft 243 kts 154°
2026-04-16 11:25 30.21775 120.05779 6889 ft 242 kts 154°
2026-04-16 11:26 30.20365 120.06702 6857 ft 230 kts 153°
2026-04-16 11:26 30.18987 120.07601 6729 ft 218 kts 154°
2026-04-16 11:26 30.17741 120.08424 6562 ft 200 kts 154°
2026-04-16 11:26 30.16527 120.09231 6029 ft 203 kts 153°
2026-04-16 11:27 30.15317 120.10024 5652 ft 198 kts 154°
2026-04-16 11:27 30.14148 120.10782 5434 ft 186 kts 154°
2026-04-16 11:27 30.13040 120.11508 5162 ft 179 kts 150°
2026-04-16 11:27 30.12263 120.12608 4891 ft 180 kts 109°
2026-04-16 11:28 30.12191 120.14026 4661 ft 179 kts 79°
2026-04-16 11:28 30.12548 120.15384 4409 ft 177 kts 67°
2026-04-16 11:28 30.13083 120.16660 4127 ft 176 kts 61°
2026-04-16 11:28 30.13665 120.17903 3934 ft 175 kts 61°
2026-04-16 11:29 30.14246 120.19150 3904 ft 175 kts 62°
2026-04-16 11:29 30.14822 120.20414 3803 ft 176 kts 63°
2026-04-16 11:29 30.15379 120.21662 3580 ft 175 kts 64°
2026-04-16 11:29 30.15932 120.22918 3343 ft 171 kts 64°
2026-04-16 11:30 30.16458 120.24117 3106 ft 162 kts 64°
2026-04-16 11:30 30.16949 120.25240 2889 ft 154 kts 64°
2026-04-16 11:30 30.17424 120.26327 2720 ft 146 kts 64°
2026-04-16 11:30 30.17865 120.27335 2522 ft 139 kts 63°
2026-04-16 11:31 30.18300 120.28330 2354 ft 137 kts 63°
2026-04-16 11:31 30.18727 120.29305 2184 ft 136 kts 63°
2026-04-16 11:31 30.19160 120.30290 2009 ft 136 kts 62°
2026-04-16 11:31 30.19588 120.31260 1832 ft 135 kts 63°
2026-04-16 11:32 30.20016 120.32230 1652 ft 135 kts 63°
2026-04-16 11:32 30.20442 120.33193 1462 ft 135 kts 63°
2026-04-16 11:32 30.20870 120.34162 1283 ft 134 kts 63°
2026-04-16 11:32 30.21290 120.35113 1106 ft 134 kts 63°
2026-04-16 11:33 30.21713 120.36070 930 ft 133 kts 63°
2026-04-16 11:33 30.22136 120.37028 757 ft 133 kts 62°
2026-04-16 11:33 30.22560 120.37985 583 ft 133 kts 62°
2026-04-16 11:33 30.22985 120.38937 410 ft 132 kts 63°
2026-04-16 11:34 30.23400 120.39883 236 ft 132 kts 62°
2026-04-16 11:34 30.23813 120.40816 72 ft 130 kts 62°
2026-04-16 11:34 30.24215 120.41722 29 ft 111 kts 63°
2026-04-16 11:34 30.24488 120.42339 29 ft 57 kts 62°
2026-04-16 11:35 30.24639 120.42677 29 ft 34 kts 63°
2026-04-16 11:35 30.24704 120.42847 29 ft 20 kts 73°
2026-04-16 11:35 30.24723 120.43008 29 ft 20 kts 88°
2026-04-16 11:35 30.24723 120.43105 29 ft 9 kts 90°
2026-04-16 11:36 30.24723 120.43188 29 ft 11 kts 89°
2026-04-16 11:36 30.24702 120.43244 29 ft 7 kts 152°
2026-04-16 11:36 30.24651 120.43274 29 ft 7 kts 153°
2026-04-16 11:36 30.24600 120.43304 29 ft 9 kts 153°
2026-04-16 11:37 30.24538 120.43307 29 ft 10 kts 220°
2026-04-16 11:37 30.24503 120.43237 29 ft 9 kts 243°
2026-04-16 11:37 30.24470 120.43161 29 ft 11 kts 243°
2026-04-16 11:37 30.24432 120.43076 29 ft 12 kts 243°
2026-04-16 11:38 30.24391 120.42982 29 ft 13 kts 243°
2026-04-16 11:38 30.24349 120.42888 29 ft 11 kts 243°
2026-04-16 11:38 30.24305 120.42802 29 ft 12 kts 242°
2026-04-16 11:38 30.24262 120.42707 29 ft 13 kts 243°
2026-04-16 11:39 30.24219 120.42609 29 ft 13 kts 243°
2026-04-16 11:39 30.24177 120.42515 29 ft 13 kts 243°
2026-04-16 11:39 30.24136 120.42423 29 ft 12 kts 243°
2026-04-16 11:39 30.24096 120.42332 29 ft 12 kts 243°
2026-04-16 11:40 30.24062 120.42255 29 ft 10 kts 242°
2026-04-16 11:40 30.24028 120.42189 29 ft 8 kts 216°
2026-04-16 11:40 30.23971 120.42197 29 ft 8 kts 153°
2026-04-16 11:40 30.23920 120.42226 29 ft 7 kts 153°
2026-04-16 11:41 30.23891 120.42261 29 ft 6 kts 103°
2026-04-16 11:41 30.23893 120.42308 29 ft 4 kts 83°
2026-04-16 11:41 30.23897 120.42342 29 ft 3 kts 82°
2026-04-16 11:41 30.23898 120.42355 29 ft 0 kts 83°
2026-04-16 11:42 30.23899 120.42361 29 ft 0 kts 83°
2026-04-16 11:42 30.23899 120.42363 29 ft 0 kts 83°